User: anonymous   Login
Location: Theydon Bois
(51.6750°N, 0.1050°E)
Time: 12:31:46
(UTC+01:00)
Language:

KORONAS-FOTON - Orbit

View from above orbital plane
View from above orbital plane
View from above satellite
View from above satellite

Ground track
Ground track

The orbit data is extracted from the following two-line orbital elements,

1 33504U 09003A   18113.06919205  .00000612  00000-0  30797-4 0  9992
2 33504  82.4401 284.9674 0020756 117.0474 243.2879 15.15139186508390
Epoch (UTC): 23 April 2018 01:39:38
Eccentricity: 0.0020756
inclination: 82.4401°
perigee height: 506 km
apogee height: 535 km
right ascension of ascending node: 284.9674°
argument of perigee: 117.0474°
revolutions per day: 15.15139186
mean anomaly at epoch: 243.2879°
orbit number at epoch: 50839

The dashed part of the orbit path shows where the satellite is in the earth's shadow,  

DLR